Location: Eferding
(48.3167°N, 14.0167°E)
Time: 09:35:56
(UTC+00:00)

Cosmos 1697 Rocket - Pass Details

Date: 12 November 2019
Orbit: 834 x 842 km, 71.0° (Epoch: 15 December)

Event Time Altitude Azimuth Distance (km) Brightness Sun altitude
Rises 16:38:19 0° 155° (SSE) 3,385 5.7 -11.6°
Reaches altitude 10° 16:41:40 10° 134° (SE) 2,456 4.8 -12.1°
Maximum altitude 16:44:58 16° 98° (E) 2,059 4.1 -12.7°
Enters shadow 16:45:16 16° 94° (E) 2,063 4.1 -12.7°
